| time (UTC) | temp F | wind direction | speed MPH | gust MPH | rain 1hr in | rain 24hr in | rain mn in | humidity % | barometer mb |
| 20260502151515 | 60 | 250 | 6.0 | 13.0 | 0.00 | 0.13 | 0.13 | 80 | |
| 20260502150516 | 60 | 242 | 6.0 | 16.0 | 0.00 | 0.13 | 0.13 | 80 | |
| 20260502130536 | 62 | 244 | 6.0 | 14.0 | 0.00 | 0.13 | 0.13 | 74 | 1015.9 |
| 20260502123516 | 63 | 266 | 5.0 | 11.0 | 0.00 | 0.13 | 0.13 | 73 | 1016.0 |
| 20260502122515 | 64 | 249 | 4.0 | 11.0 | 0.00 | 0.13 | 0.13 | 73 | 1016.1 |
| 20260502121516 | 65 | 250 | 5.0 | 10.0 | 0.00 | 0.13 | 0.13 | 71 | 1016.2 |
| 20260502120516 | 65 | 236 | 2.0 | 7.0 | 0.00 | 0.13 | 0.13 | 72 | 1016.4 |
| 20260502115516 | 66 | 271 | 2.0 | 8.0 | 0.00 | 0.13 | 0.13 | 72 | 1016.5 |
| 20260502114516 | 66 | 243 | 3.0 | 7.0 | 0.00 | 0.13 | 0.13 | 71 | 1016.5 |
| 20260502113516 | 67 | 82 | 1.0 | 5.0 | 0.00 | 0.13 | 0.13 | 71 | 1016.5 |
| 20260502112516 | 67 | 95 | 1.0 | 5.0 | 0.00 | 0.13 | 0.13 | 72 | 1016.6 |
| 20260502111516 | 65 | 141 | 0.0 | 1.0 | 0.00 | 0.13 | 0.13 | 74 | 1016.8 |
| 20260502110537 | 64 | 0.0 | 1.0 | 0.00 | 0.13 | 0.13 | 76 | 1016.9 | |
| 20260502105536 | 64 | 94 | 0.0 | 4.0 | 0.01 | 0.13 | 0.13 | 78 | 1017.1 |
| 20260502104535 | 62 | 128 | 0.0 | 2.0 | 0.01 | 0.13 | 0.13 | 78 | 1017.2 |
| 20260502103516 | 61 | 213 | 1.0 | 5.0 | 0.01 | 0.13 | 0.13 | 79 | 1017.2 |
| 20260502102515 | 61 | 286 | 1.0 | 5.0 | 0.01 | 0.13 | 0.13 | 80 | 1017.3 |
| 20260502101516 | 61 | 244 | 1.0 | 7.0 | 0.01 | 0.13 | 0.13 | 80 | 1017.4 |
| 20260502100516 | 62 | 0.0 | 0.0 | 0.01 | 0.13 | 0.13 | 78 | 1017.5 | |
| 20260502091516 | 62 | 97 | 0.0 | 3.0 | 0.00 | 0.13 | 0.13 | 79 | 1017.4 |
| 20260502090516 | 62 | 95 | 0.0 | 2.0 | 0.00 | 0.13 | 0.13 | 77 | 1017.3 |
| 20260502071516 | 58 | 0.0 | 2.0 | 0.00 | 0.13 | 0.13 | 12 | 1017.5 | |
| 20260502070516 | 58 | 223 | 0.0 | 3.0 | 0.00 | 0.13 | 0.13 | 10 | 1017.5 |
| 20260502065536 | 57 | 0.0 | 0.0 | 0.00 | 0.13 | 0.13 | 7 | 1017.6 | |
| 20260502064516 | 56 | 0.0 | 0.0 | 0.00 | 0.13 | 0.13 | 7 | 1017.5 | |
| 20260502063516 | 55 | 224 | 1.0 | 3.0 | 0.00 | 0.13 | 0.13 | 7 | 1017.5 |
| 20260502062536 | 54 | 209 | 0.0 | 1.0 | 0.00 | 0.13 | 0.13 | 8 | 1017.5 |
| 20260502061516 | 0 | 0.0 | 0.0 | 0.00 | 0.13 | 0.13 | |||
| 20260502060516 | 0 | 0.0 | 0.0 | 0.00 | 0.13 | 0.13 | |||
| 20260502054015 | 0 | 0.0 | 0.0 | 0.00 | 0.13 | 0.13 | |||
| 20260502051516 | 0 | 0.0 | 0.0 | 0.00 | 0.13 | 0.13 | |||
| 20260502045035 | 0 | 0.0 | 0.0 | 0.00 | 0.13 | 0.13 | |||
| 20260502042515 | 0 | 0.0 | 0.0 | 0.00 | 0.13 | 0.13 | |||
| 20260502040016 | 0 | 0.0 | 0.0 | 0.00 | 0.13 | 0.13 | |||
| 20260502033515 | 0 | 0.0 | 0.0 | 0.00 | 0.13 | 0.13 | |||
| 20260502031015 | 0 | 0.0 | 0.0 | 0.00 | 0.13 | 0.13 | |||
| 20260502024515 | 0 | 0.0 | 0.0 | 0.00 | 0.13 | 0.13 | |||
| 20260502022035 | 0 | 0.0 | 0.0 | 0.00 | 0.13 | 0.13 | |||
| 20260502015515 | 0 | 0.0 | 0.0 | 0.00 | 0.13 | 0.13 | |||
| 20260502013015 | 0 | 0.0 | 0.0 | 0.00 | 0.13 | 0.13 | |||
| 20260502011515 | 58 | 0.0 | 0.0 | 0.00 | 0.13 | 0.13 | 18 | 1018.2 | |
| 20260502010536 | 58 | 228 | 0.0 | 3.0 | 0.01 | 0.13 | 0.13 | 19 | 1018.5 |
| 20260502005515 | 58 | 259 | 0.0 | 3.0 | 0.04 | 0.13 | 0.13 | 20 | 1018.5 |
| 20260502004515 | 58 | 230 | 1.0 | 2.0 | 0.04 | 0.13 | 0.13 | 22 | 1018.7 |
| 20260502003536 | 58 | 245 | 0.0 | 1.0 | 0.04 | 0.13 | 0.13 | 26 | 1018.8 |
| 20260502002515 | 59 | 0.0 | 0.0 | 0.04 | 0.13 | 0.13 | 26 | 1018.9 | |
| 20260502001515 | 59 | 127 | 0.0 | 2.0 | 0.09 | 0.13 | 0.13 | 28 | 1018.6 |
| 20260502000515 | 59 | 0.0 | 0.0 | 0.12 | 0.12 | 0.12 | 31 | 1018.7 | |
| 20260501235515 | 59 | 0.0 | 0.0 | 0.09 | 0.09 | 0.09 | 34 | 1019.2 | |
| 20260501234516 | 59 | 0.0 | 3.0 | 0.09 | 0.09 | 0.09 | 40 | 1019.4 | |
| 20260501233515 | 59 | 229 | 1.0 | 4.0 | 0.09 | 0.09 | 0.09 | 46 | 1019.4 |
| 20260501232515 | 59 | 104 | 2.0 | 5.0 | 0.09 | 0.09 | 0.09 | 49 | 1018.9 |
| 20260501231516 | 59 | 225 | 1.0 | 5.0 | 0.04 | 0.04 | 0.04 | 55 | 1019.5 |
| 20260501230556 | 59 | 222 | 1.0 | 2.0 | 0.00 | 0.00 | 0.00 | 59 | 1019.2 |
| 20260501225516 | 59 | 252 | 0.0 | 1.0 | 0.00 | 0.00 | 0.00 | 59 | 1019.3 |
| 20260501224515 | 59 | 252 | 0.0 | 1.0 | 0.00 | 0.00 | 0.00 | 60 | 1019.4 |
| 20260501223515 | 59 | 225 | 0.0 | 2.0 | 0.00 | 0.00 | 0.00 | 64 | 1019.4 |
| 20260501222516 | 60 | 268 | 0.0 | 1.0 | 0.00 | 0.00 | 0.00 | 64 | 1019.2 |
| 20260501221536 | 60 | 264 | 0.0 | 1.0 | 0.00 | 0.00 | 0.00 | 64 | 1019.5 |
| 20260501220515 | 59 | 0.0 | 0.0 | 0.00 | 0.00 | 0.00 | 64 | 1019.7 | |
| 20260501215537 | 60 | 0.0 | 0.0 | 0.00 | 0.00 | 0.00 | 65 | 1019.8 | |
| 20260501214516 | 60 | 0.0 | 0.0 | 0.00 | 0.00 | 0.00 | 65 | 1019.7 | |
| 20260501213516 | 60 | 0.0 | 0.0 | 0.00 | 0.00 | 0.00 | 67 | 1019.9 | |
| 20260501212516 | 60 | 0.0 | 0.0 | 0.00 | 0.00 | 0.00 | 68 | 1020.0 | |
| 20260501211536 | 60 | 0.0 | 0.0 | 0.00 | 0.00 | 0.00 | 67 | 1019.8 | |
| 20260501210617 | 60 | 0.0 | 0.0 | 0.00 | 0.00 | 0.00 | 66 | 1019.8 | |
| 20260501205516 | 60 | 0.0 | 0.0 | 0.00 | 0.00 | 0.00 | 65 | 1019.8 | |
| 20260501204517 | 60 | 255 | 0.0 | 2.0 | 0.00 | 0.00 | 0.00 | 64 | 1019.8 |
| 20260501203516 | 60 | 246 | 1.0 | 2.0 | 0.00 | 0.00 | 0.00 | 65 | 1019.8 |
| 20260501202516 | 60 | 0.0 | 0.0 | 0.00 | 0.00 | 0.00 | 68 | 1019.7 | |
| 20260501201516 | 60 | 0.0 | 0.0 | 0.00 | 0.00 | 0.00 | 68 | 1019.5 | |
| 20260501200516 | 61 | 241 | 0.0 | 1.0 | 0.00 | 0.00 | 0.00 | 68 | 1019.5 |
| 20260501195516 | 61 | 221 | 0.0 | 1.0 | 0.00 | 0.00 | 0.00 | 70 | 1019.5 |
| 20260501194517 | 61 | 0.0 | 0.0 | 0.00 | 0.00 | 0.00 | 73 | 1019.4 | |
| 20260501193516 | 61 | 0.0 | 0.0 | 0.00 | 0.00 | 0.00 | 75 | 1019.5 | |
| 20260501192517 | 62 | 103 | 0.0 | 2.0 | 0.00 | 0.00 | 0.00 | 76 | 1019.5 |
| 20260501191516 | 62 | 97 | 0.0 | 2.0 | 0.00 | 0.00 | 0.00 | 77 | 1019.4 |
| 20260501190516 | 62 | 102 | 0.0 | 1.0 | 0.00 | 0.00 | 0.00 | 79 | 1019.4 |
| 20260501185517 | 63 | 226 | 0.0 | 2.0 | 0.00 | 0.00 | 0.00 | 80 | 1019.3 |
| 20260501184516 | 63 | 0.0 | 0.0 | 0.00 | 0.00 | 0.00 | 80 | 1019.2 | |
| 20260501183516 | 64 | 118 | 0.0 | 1.0 | 0.00 | 0.00 | 0.00 | 80 | 1019.4 |
| 20260501182516 | 64 | 0.0 | 0.0 | 0.00 | 0.00 | 0.00 | 80 | 1019.3 | |
| 20260501181516 | 64 | 0.0 | 0.0 | 0.00 | 0.00 | 0.00 | 79 | ||
| 20260501180516 | 64 | 0.0 | 0.0 | 0.00 | 0.00 | 0.00 | 79 | ||
| 20260501175516 | 65 | 227 | 0.0 | 1.0 | 0.00 | 0.00 | 0.00 | 77 | |
| 20260501174556 | 66 | 94 | 0.0 | 2.0 | 0.00 | 0.00 | 0.00 | 77 | |
| 20260501173516 | 66 | 0.0 | 2.0 | 0.00 | 0.00 | 0.00 | 78 | ||
| 20260501172516 | 66 | 93 | 0.0 | 3.0 | 0.00 | 0.00 | 0.00 | 79 | |
| 20260501171516 | 66 | 0.0 | 0.0 | 0.00 | 0.00 | 0.00 | 79 | ||
| 20260501170516 | 65 | 131 | 0.0 | 4.0 | 0.00 | 0.00 | 0.00 | 79 | |
| 20260501165517 | 65 | 86 | 0.0 | 4.0 | 0.00 | 0.00 | 0.00 | 79 | |
| 20260501164516 | 66 | 104 | 0.0 | 2.0 | 0.00 | 0.00 | 0.00 | 78 | |
| 20260501163516 | 66 | 117 | 0.0 | 1.0 | 0.00 | 0.00 | 0.00 | 78 | |
| 20260501162516 | 66 | 135 | 0.0 | 2.0 | 0.00 | 0.00 | 0.00 | 79 | |
| 20260501161516 | 66 | 94 | 1.0 | 4.0 | 0.00 | 0.00 | 0.00 | 79 | |
| 20260501160517 | 66 | 106 | 0.0 | 2.0 | 0.00 | 0.00 | 0.00 | 79 | |
| 20260501155516 | 65 | 119 | 0.0 | 4.0 | 0.00 | 0.00 | 0.00 | 79 |